User: anonymous   Login
Location: Summit Observatory
(39.5293°N, 75.7290°W)
Time: 02:21:07
(UTC-04:00)
Language:

Gurwin Techsat 1B - Orbit

View from above orbital plane
View from above orbital plane
View from above satellite
View from above satellite

Ground track
Ground track

The orbit data is extracted from the following two-line orbital elements,

1 25397U 98043D   15115.04388090  .00000166  00000-0  91366-4 0  9997
2 25397 098.5149 067.1663 0002349 105.5450 345.8036 14.23537986872230
Epoch (UTC): 25 April 2015 01:03:11
Eccentricity: 0.0002349
inclination: 98.5149°
perigee height: 812 km
apogee height: 815 km
right ascension of ascending node: 67.1663°
argument of perigee: 105.5450°
revolutions per day: 14.23537986
mean anomaly at epoch: 345.8036°
orbit number at epoch: 87223

The dashed part of the orbit path shows where the satellite is in the earth's shadow,  

DLR